Location: Rounton
(54.4000°N, 1.3500°W)
Time: 03:05:35
(UTC+01:00)

FENGYUN 1C DEB - Visible Passes

Search period start: 01 July 2022 00:00
Search period end: 11 July 2022 00:00
Orbit: 718 x 895 km, 98.1° (Epoch: 29 June)

Date Brightness Start Highest point End Pass type
(mag) Time Alt. Az. Time Alt. Az. Time Alt. Az.
02 Jul ? 03:37:39 10° NNE 03:42:43 31° E 03:47:44 10° SSE visible
03 Jul ? 03:13:22 10° NE 03:17:41 21° E 03:21:58 10° SE visible
04 Jul ? 02:49:31 10° NE 02:52:32 14° E 02:55:33 10° ESE visible
06 Jul ? 03:38:35 10° NNE 03:43:42 32° E 03:48:44 10° SSE visible
07 Jul ? 03:14:17 10° NE 03:18:39 22° E 03:22:58 10° SE visible
08 Jul ? 02:50:24 10° NE 02:53:31 15° E 02:56:35 10° ESE visible
10 Jul ? 03:39:30 10° NNE 03:44:39 32° E 03:49:40 10° SSE visible
